Location: Haringey
(51.5833°N, 0.0833°W)
Time: 05:12:17
(UTC+00:00)

Daily predictions for brighter satellites

Satellite Brightness Start Highest point End
(mag) Time Altitude Azimuth Time Altitude Azimuth Time Altitude Azimuth
Cosmos 2333 Rocket 4.3 03:32:03 21° E 03:32:03 21° E 03:36:07 10° NE
Cosmos 2219 Rocket 4.4 03:33:23 19° ESE 03:33:52 19° E 03:37:41 10° ENE
USA 215 3.9 03:43:20 10° ENE 03:48:02 50° NE 03:48:02 50° NE
SL-16 R/B 4.0 04:00:40 24° NNE 04:00:40 24° NNE 04:02:50 10° NNE
Cosmos 2360 Rocket 3.5 04:05:03 35° NE 04:05:03 35° NE 04:08:16 10° NNE
Cosmos 2322 Rocket 3.8 04:06:14 26° NNE 04:06:14 26° NNE 04:08:39 10° NNE
Cosmos 1980 Rocket 4.3 04:21:02 16° N 04:21:02 16° N 04:22:33 10° NNE
Cosmos 2233 Rocket 3.9 04:36:27 75° N 04:36:27 75° N 04:42:07 10° N
CZ-2C R/B 4.5 04:36:35 10° N 04:37:58 19° N 04:37:58 19° N
Cosmos 1932 4.4 04:43:51 72° SSW 04:44:35 84° SE 04:51:03 10° NE
Cosmos 1898 Rocket 3.6 04:48:06 67° SE 04:48:06 67° SE 04:52:37 10° SSE
BREEZE-M DEB (TANK) 3.7 04:48:26 65° S 04:48:49 68° SSE 05:01:16 10° E
Cosmos 2084 4.4 04:49:48 46° E 04:49:48 46° E 04:53:20 10° NE
Cosmos 2369 Rocket 4.4 04:48:24 12° N 04:51:25 17° NNE 04:55:00 10° ENE
Cosmos 1758 4.5 04:54:43 41° NE 04:54:43 41° NE 04:57:48 10° NNE
Cosmos 921 Rocket 4.2 04:53:25 28° SSE 04:54:59 40° ESE 04:58:57 10° NE
Cosmos 2278 Rocket 2.3 04:56:36 51° NNW 04:58:02 76° ENE 05:03:43 10° SE
CZ-4B R/B 4.4 04:54:15 10° NNE 04:58:45 67° ESE 04:58:57 66° ESE
COSMO-SKYMED 1 3.5 04:56:41 10° SSE 04:59:33 41° SSE 04:59:33 41° SSE
METEOR-M 4.0 04:55:54 10° NNE 05:01:18 90° WNW 05:02:51 49° SSW
CZ-4B R/B 4.3 04:58:02 10° NNE 05:01:20 33° E 05:04:39 10° SSE
Cosmos 1943 Rocket 4.0 05:01:15 13° N 05:05:01 25° NE 05:09:40 10° E
Cosmos 2322 3.6 05:09:02 62° WSW 05:09:57 77° WNW 05:15:44 10° NNE
Lacrosse 5 rocket 1.7 05:11:52 57° ESE 05:11:52 57° ESE 05:14:55 10° ESE
SAR-Lupe-4 4.3 05:08:24 10° SSE 05:11:25 51° ESE 05:11:25 51° ESE
Cosmos 1464 Rocket 4.2 05:06:08 10° S 05:12:12 69° E 05:18:20 10° NNE
Cosmos 2237 Rocket 3.7 05:07:08 10° S 05:12:13 35° ESE 05:17:21 10° NE
CZ-2C R/B 4.2 05:09:55 10° ESE 05:14:32 33° ENE 05:19:16 10° N
H-2A R/B 4.2 05:11:13 10° NNE 05:14:40 36° E 05:18:06 10° SSE
Meteor 1-31 Rocket 4.4 05:11:20 10° NNE 05:13:02 25° NNE 05:13:02 25° NNE
Cosmos 1867 3.8 05:15:21 50° NW 05:15:21 50° NW 05:20:36 10° NE
Cosmos 2333 Rocket 2.0 05:14:07 50° SW 05:15:39 80° WNW 05:21:22 10° NNE
Cosmos 2219 Rocket 2.0 05:15:11 43° SW 05:17:07 84° WNW 05:22:45 10° NNE
Cosmos 468 Rocket 4.1 05:14:26 18° SSW 05:18:20 78° ESE 05:23:40 10° NNE
Cosmos 1544 Rocket 4.4 05:14:14 10° SSE 05:18:23 49° E 05:22:35 10° NNE
Cosmos 1937 Rocket 3.4 05:20:43 48° NW 05:22:10 75° WSW 05:27:24 10° SSE
SAR-Lupe-1 4.2 05:19:09 10° SSE 05:22:28 69° ESE 05:22:28 69° ESE
BREEZE-M DEB (TANK) 4.0 05:20:10 35° W 05:23:43 54° SW 05:27:49 10° SE
Cosmos 372 Rocket 4.3 05:20:52 22° NNW 05:24:15 67° ENE 05:29:29 10° SE
Okean 1-7 Rocket 3.5 05:23:32 47° NNW 05:24:49 80° W 05:29:19 10° S
Cosmos 2084 Rocket 4.5 05:25:15 33° N 05:26:28 41° NNE 05:30:41 10° ESE
Envisat 4.2 05:23:17 10° NNE 05:28:08 42° E 05:32:57 10° SSE
GEOS 3 Rocket 3.8 05:25:10 10° SSE 05:30:25 53° SW 05:31:33 45° W
OPS 6432 4.4 05:32:05 85° SSE 05:32:07 85° SE 05:35:20 10° NE
USA 215 3.5 05:26:11 10° ENE 05:32:31 56° N 05:35:23 33° WNW
Cosmos 1626 Rocket 3.8 05:29:05 10° N 05:33:34 72° ENE 05:38:02 10° SSE
COSMOS 2428 2.6 05:32:08 25° SW 05:35:37 75° WNW 05:41:21 10° NNE
Cosmos 1092 Rocket 4.4 05:30:22 10° N 05:36:28 62° ENE 05:42:34 10° SSE
YAOGAN 6 3.8 05:34:17 10° NNE 05:37:50 43° E 05:41:23 10° S
Cosmos 2333 4.4 05:36:44 42° W 05:37:54 49° NW 05:43:23 10° NNE
IRIDIUM 104 4.4 05:34:30 10° SSW 05:39:35 50° W 05:44:41 10° N
SL-16 R/B 3.6 05:42:32 20° NNW 05:42:32 20° NNW 05:46:30 10° NNE
Cosmos 1980 4.2 05:39:18 10° SSW 05:44:52 63° ESE 05:50:28 10° NE
Cosmos 1455 Rocket 2.9 05:40:55 10° SSW 05:45:14 63° WNW 05:49:34 10° N
Cosmos 2360 Rocket 3.0 05:46:50 29° NW 05:47:10 29° NW 05:52:05 10° NNE
Cosmos 2322 Rocket 3.5 05:48:04 21° NW 05:48:04 21° NW 05:52:16 10° NNE
Cosmos 44 Rocket 3.7 05:47:02 38° W 05:48:26 47° WSW 05:53:25 10° SSE
SKYMED 2 4.4 05:45:11 10° SSW 05:48:08 31° SW 05:48:08 31° SW
ALOS 3.7 05:45:19 10° N 05:47:33 22° NNW 05:47:33 22° NNW
Cosmos 2034 Rocket 4.0 05:43:15 10° S 05:49:38 90° ESE 05:56:03 10° N
H-2A R/B 4.4 05:47:02 10° NNE 05:51:08 34° E 05:55:15 10° SSE
FENGYUN 3A 4.3 05:47:47 10° N 05:52:30 32° WNW 05:52:53 32° WNW
Nadezhda 4 Rocket 3.9 05:47:24 10° NNW 05:53:30 68° W 05:59:33 10° S
ADEOS 3.9 05:49:28 10° N 05:54:23 43° WNW 05:58:33 14° SW
Cosmos 1758 Rocket 4.4 05:51:14 10° N 05:55:40 52° ENE 06:00:03 10° SSE
ATLAS CENTAUR R/B 4.2 05:53:19 10° SSE 05:55:41 16° ESE 05:58:02 10° ENE
Meteor PRIRODA 3.5 05:53:03 10° N 05:56:40 62° WNW 06:00:14 10° SSW
deb Chang Zheng 4 3.5 05:52:32 10° N 05:56:45 57° WNW 06:00:53 10° SSW
Cosmos 540 Rocket 3.4 05:53:55 10° SSW 05:59:02 85° ESE 06:04:13 10° NNE
ERS-2 3.5 05:56:12 10° SSW 05:58:03 23° SW 05:58:03 23° SW
MOS 1 Rocket 3.6 05:54:57 10° S 05:59:43 44° W 06:03:06 17° NNW
Cosmos 1953 2.1 05:55:49 10° SSW 05:59:47 69° WNW 06:03:46 10° N
Okean O Rocket 3.7 05:57:12 10° NNE 06:01:05 30° E 06:04:54 10° SSE
Cosmos 1980 Rocket 4.3 06:02:48 10° NNW 06:04:20 11° N 06:05:58 10° N
Cosmos 1908 3.1 06:01:55 10° S 06:05:43 88° W 06:09:34 10° N
Meteor 2-10 4.4 06:00:29 10° SW 06:05:49 44° WNW 06:11:02 10° N
Cosmos 1726 3.6 06:10:29 20° NNW 06:10:29 20° NNW 06:12:09 10° N
SMAP 4.0 06:06:54 10° NNE 06:11:28 51° E 06:15:59 10° S
Cosmos 1689 Rocket 3.9 06:10:35 10° SSW 06:11:43 18° SW 06:11:43 18° SW
Spot 2 4.4 06:09:11 10° NNE 06:13:14 62° ESE 06:17:14 10° S
Cosmos 1602 Rocket 3.5 06:09:25 10° NNW 06:13:50 64° W 06:18:14 10° S
Meteor 1-16 Rocket 4.3 06:08:30 10° SSW 06:14:25 79° WNW 06:20:24 10° N
Cosmos 1461 3.1 06:11:59 11° SW 06:16:33 69° NW 06:21:20 10° NE
Cosmos 2150 Rocket 4.0 06:11:21 10° NNW 06:16:42 89° WSW 06:22:06 10° SSE
Cosmos 1315 Rocket 4.5 06:16:22 10° SSE 06:19:57 36° E 06:23:33 10° NNE
DMSP B5D2-2 4.2 06:20:01 10° SSE 06:25:16 80° ENE 06:30:35 10° NNW
Cosmos 1763 Rocket 4.0 06:21:45 10° WSW 06:26:35 38° NW 06:31:30 10° NNE
Cosmos 2084 4.1 06:26:23 20° W 06:28:47 37° NNW 06:32:53 10° NE
Cosmos 2026 Rocket 4.0 06:24:15 10° NNW 06:30:34 74° W 06:36:55 10° S
Cosmos 1825 Rocket 3.7 06:26:53 10° N 06:31:22 84° E 06:35:51 10° SSE
Meteor 1-11 4.1 06:26:46 10° NNW 06:32:22 72° W 06:37:54 10° S
Cosmos 841 Rocket 3.5 06:27:22 10° SW 06:32:26 59° WNW 06:37:33 10° NNE
Meteor 2-19 Rocket 4.4 06:26:20 10° NNW 06:32:31 86° W 06:38:37 10° S
Cosmos 921 Rocket 3.9 06:30:20 13° WSW 06:33:24 27° WNW 06:37:01 10° N
Cosmos 1340 3.4 06:30:49 14° NW 06:33:34 32° W 06:36:55 10° SSW
CENTAUR R/B 4.3 06:29:46 10° S 06:35:05 35° ESE 06:41:16 10° NE
CZ-4B R/B 3.7 06:33:25 10° N 06:36:20 23° WNW 06:39:15 10° WSW
Cosmos 1703 4.1 06:33:30 11° NNW 06:36:48 30° W 06:40:12 10° SSW
Cosmos 2369 Rocket 2.9 06:31:19 10° NNW 06:36:50 52° NE 06:42:16 10° SE
COSMO-SKYMED 1 4.4 06:35:35 10° WSW 06:36:47 13° WSW 06:36:47 13° WSW
Cosmos 2098 Rocket 3.8 06:32:47 10° NNW 06:39:24 77° W 06:44:42 10° S
Cosmos 2298 Rocket 4.2 06:35:32 10° NNW 06:40:46 56° WSW 06:45:58 10° S
Cosmos 2278 Rocket 3.4 06:38:29 15° WNW 06:41:32 22° WSW 06:45:47 10° SSW
CZ-4B R/B 3.6 06:35:56 10° NNE 06:41:38 73° ESE 06:47:15 10° S
NOSS 0 Rocket 4.0 06:35:54 10° SW 06:41:58 55° NW 06:48:03 10° NNE
Cosmos 1346 Rocket 2.8 06:39:26 10° NNW 06:43:22 61° W 06:47:17 10° S
SL-16 R/B 2.8 06:37:51 10° SSW 06:43:24 62° ESE 06:49:01 10° NE
Cosmos 1570 Rocket 4.1 06:40:34 10° SW 06:45:42 56° WNW 06:50:54 10° NNE
H-2A R/B 3.8 06:45:43 10° NNW 06:48:40 23° WNW 06:51:37 10° WSW
PAYLOAD B 4.2 06:43:26 10° NNE 06:49:01 78° WNW 06:54:36 10° SSW
Cosmos 1943 Rocket 2.2 06:43:49 10° NNW 06:49:31 88° WSW 06:55:12 10° SSE
Lacrosse 5 rocket 2.7 06:47:30 13° W 06:49:49 21° SW 06:52:42 10° S
Cosmos 1953 Rocket 3.5 06:48:22 10° N 06:52:43 89° W 06:57:03 10° S
Cosmos 1939 Rocket 3.4 06:49:31 10° NNE 06:53:27 63° ESE 06:57:18 10° S
NOAA 12 4.1 06:48:47 10° NNE 06:54:04 76° WNW 06:59:21 10° SSW
Lacrosse 4 Rocket 1.7 06:49:51 10° SSW 06:54:05 77° SE 06:58:29 10° NE
CZ-2C R/B 2.9 06:49:41 10° S 06:54:41 46° W 06:59:51 10° NNW
Cosmos 2237 Rocket 2.4 06:50:38 10° SW 06:56:08 50° NW 07:01:42 10° NNE
Cosmos 2058 4.3 06:54:03 10° N 06:57:59 40° ENE 07:01:52 10° SE
Cosmos 2333 Rocket 3.4 06:56:27 10° W 07:00:51 23° NW 07:05:16 10° NNE
Cosmos 2219 Rocket 3.3 06:57:31 10° W 07:01:55 23° NW 07:06:20 10° NNE
FengYun 1-2 T 4.4 06:56:33 10° NNE 07:02:16 90° WNW 07:07:56 10° SSW
Cosmos 1125 Rocket 3.8 06:58:41 10° NNW 07:03:51 53° WSW 07:08:59 10° S
Cosmos 2208 Rocket 4.3 07:00:29 10° SW 07:05:45 49° WNW 07:11:02 10° NNE
Cosmos 2084 Rocket 4.0 07:01:52 10° NW 07:06:02 44° SW 07:10:18 10° SSE
CZ-4 R/B 3.3 07:03:07 10° NNE 07:06:40 33° E 07:10:11 10° SSE
Envisat 3.6 07:02:31 10° N 07:07:04 34° WNW 07:11:36 10° SW
Cosmos 1400 Rocket 3.7 07:04:45 10° SW 07:08:19 28° WNW 07:11:56 10° N
Cosmos 1606 Rocket 3.5 07:05:04 10° SSW 07:09:21 69° WNW 07:13:42 10° N
FALCON 9 DEB 3.3 07:06:25 10° WSW 07:09:49 75° SSE 07:13:14 10° ENE
Cosmos 1814 Rocket 4.3 07:05:08 10° SW 07:09:59 41° NW 07:14:51 10° NNE
YAOGAN 6 4.0 07:08:20 10° NNW 07:11:03 20° WNW 07:13:47 10° WSW
NOAA 6 4.4 07:07:29 10° N 07:12:20 41° WNW 07:17:10 10° SW
Cosmos 2297 4.2 07:08:17 10° NW 07:13:41 42° WSW 07:19:02 10° S
CORIOLIS 4.1 07:09:27 10° N 07:14:46 65° WNW 07:20:03 10° SSW
SL-4 R/B 3.5 07:11:09 10° SW 07:14:48 38° SSE 07:18:46 10° E
USA 215 3.4 07:08:43 10° ESE 07:15:14 73° NNE 07:21:45 10° WNW
BREEZE M DEB (TANK) 4.0 07:15:27 10° SW 07:18:02 40° SSE 07:24:18 10° E
Cosmos 2228 3.2 07:14:41 10° SSW 07:18:49 50° WNW 07:22:59 10° N
Cosmos 1455 3.5 07:15:41 10° SSE 07:19:13 44° E 07:22:49 10° NNE
COSMOS 2428 3.9 07:16:33 10° W 07:20:53 22° NW 07:25:14 10° NNE
NOAA 11 4.3 07:17:05 10° N 07:22:30 60° WNW 07:27:50 10° SSW
